Regional Weather Roundup
Issued by NWS

Home | Current Version | Previous Version | Graphics & Text | Print | Product List | Glossary Off
Versions: 1 2 3 4 5 6 7 8 9 10 11 12 13 14 15 16 17 18 19 20 21 22 23 24 25 26 27 28 29 30 31 32 33 34 35 36 37 38 39 40 41 42 43 44 45 46 47 48 49 50

412
ASUS43 KMPX 241501
RWRMN
WEATHER ROUNDUP FOR MINNESOTA
NATIONAL WEATHER SERVICE TWIN CITIES/CHANHASSEN MN
1000 AM CDT SAT JUN 24 2017


NOTE: "FAIR" INDICATES FEW OR NO CLOUDS BELOW 12,000 FEET WITH NO
SIGNIFICANT WEATHER AND/OR OBSTRUCTIONS TO VISIBILITY. N/A MEANS
CURRENT SKY AND/OR WEATHER CONDITIONS ARE NOT AVAILABLE.

MNZ060>063-068>070-241600-
   Twin Cities Metro

CITY           SKY/WX    TMP DP  RH WIND       PRES   REMARKS
TWIN CITIES    MOSUNNY   63  41  44 NW21      30.02R
ST PAUL        MOSUNNY   62  42  47 W18G25    30.01S
CRYSTAL        MOSUNNY   62  40  44 NW14G25   30.00S
BLAINE         MOSUNNY   63  43  48 W18G28    30.00S
LAKEVILLE      MOSUNNY   59  45  58 W10G21    30.03S
EDEN PRAIRIE   MOSUNNY   63  42  46 W14G23    30.02R
SOUTH ST PAUL  MOSUNNY   61  39  44 NW13G24   30.01S
LAKE ELMO      PTSUNNY   61  43  51 W13G21    30.02R
$$
MNZ001>005-007-008-013>017-022>024-027-028-241600-
   Northwest Minnesota

CITY           SKY/WX    TMP DP  RH WIND       PRES   REMARKS
BEMIDJI        CLOUDY    56  44  66 W10       29.96S
HALLOCK        CLOUDY    54  48  82 NW16      29.97S
ROSEAU         CLOUDY    52  46  82 W9G18     29.95S HAZE
WARROAD        CLOUDY    54  48  82 W9        29.95R
CROOKSTON      PTSUNNY   55  46  71 NW14      30.01R
FOSSTON        CLOUDY    50  46  87 W12G17    29.99S
DETROIT LAKES  PTSUNNY   52  43  71 NW17      30.02R
MOORHEAD       CLOUDY    54  48  82 NW10      30.04S
PARK RAPIDS    CLOUDY    57  42  57 NW14G20   29.98R
MAHNOMEN       CLOUDY    51  46  83 NW15      30.00S
$$
MNZ006-009>011-018-025>026-241600-
   North Central Minnesota

CITY           SKY/WX    TMP DP  RH WIND       PRES   REMARKS
BAUDETTE       PTSUNNY   53  48  83 NW13      29.93R
FLAG ISLAND    CLOUDY    52  46  82 W10       29.92R
INTL FALLS       N/A     58  48  69 NW12      29.91R
WASKISH        CLOUDY    57  48  72 W8        29.94S
BIG FORK       MOSUNNY   55  48  76 NW3       29.93S
LONGVILLE      MOSUNNY   57  46  67 W8        29.95F
GRAND RAPIDS   CLOUDY    55  47  74 W9        29.96R
CRANE LAKE     CLOUDY    52  48  87 W3        29.91R
ORR            DRIZZLE   54  48  82 W9        29.89S
COOK           CLOUDY    54  48  82 W7        29.91S
WALKER         CLOUDY    55  44  66 W12       29.96S
$$
MNZ012-019>021-037-241600-
   Northeast Minnesota

CITY           SKY/WX    TMP DP  RH WIND       PRES   REMARKS
DULUTH         CLOUDY    55  48  77 NW13G23   29.90S
ELY            CLOUDY    54  52  94 NW7       29.89R
HIBBING        CLOUDY    55  48  77 NW14      29.91S
EVELETH        CLOUDY    54  45  72 W8        29.92S
DULUTH HARBOR  CLOUDY    59  50  72 W15       29.92S
TWO HARBORS    CLOUDY    59  52  77 NW6       29.88S
SILVER BAY     CLOUDY    57  52  82 W3        29.86S
GRAND MARAIS     N/A     47  47 100 SW5       29.83S
G MARAIS ARPRT RAIN      54  48  82 W3        29.85S
$$
MNZ029>031-032-039>041-046>048-054>057-064-241600-
   West Central Minnesota

CITY           SKY/WX    TMP DP  RH WIND       PRES   REMARKS
FERGUS FALLS   CLOUDY    54  45  71 NW18      30.02R
WHEATON        MOSUNNY   59  39  47 NW15G21   30.06S
MORRIS         CLOUDY    57  45  62 W13       30.03F
ALEXANDRIA     CLOUDY    55  43  63 NW15      30.03S
ELBOW LAKE     FAIR      54  44  68 NW10G18   30.04S
WADENA         PTSUNNY   54  43  66 NW12      29.99S
GLENWOOD       PTSUNNY   55  43  62 W15       30.04S
BENSON         DRIZZLE   52  46  82 W9        30.07S
ORTONVILLE     CLOUDY    54  46  76 W7        30.07S
MADISON        LGT RAIN  57  46  67 NW6       30.07F
WILLMAR        RAIN      55  46  71 W22G28    30.08
$$
MNZ033>034-036-042>043-049>051-058-059-241600-
   Central Minnesota

CITY           SKY/WX    TMP DP  RH WIND       PRES   REMARKS
ST CLOUD       SUNNY     61  43  51 W13       30.01S
SAUK CENTRE    FAIR      59  42  52 W16       30.02F
PAYNESVILLE    MOSUNNY   58  43  57 W10       30.04S
AITKIN         MOSUNNY   57  45  62 W5G17     29.95S
PINE RIVER     CLOUDY    55  46  71 W8        30.00S
BRAINERD       MOSUNNY   57  43  59 NW13      29.98S
STAPLES        MOSUNNY   55  43  62 W12       29.99S
LONG PRAIRIE   CLOUDY    54  43  66 SW7       30.02S
LITTLE FALLS   PTSUNNY   57  39  51 W14       30.00F
LITCHFIELD     MOSUNNY   61  45  55 NW13G18   30.04F
BUFFALO        MOSUNNY   61  41  49 W14       30.03F
MAPLE LAKE     PTSUNNY   60  44  56 NW10G20   30.03F
HUTCHINSON     PTSUNNY   59  44  56 W15       30.05F
$$
MNZ037-044-045-052-053-241600-
   East Central Minnesota

CITY           SKY/WX    TMP DP  RH WIND       PRES   REMARKS
PRINCETON      SUNNY     63  43  48 W12G20    29.99F
MORA           SUNNY     55  43  62 W10G18    29.99S
CAMBRIDGE      SUNNY     63  45  51 W10       29.98S
RUSH CITY      SUNNY     59  45  58 W6G16     29.98F
MOOSE LAKE     SUNNY     59  45  58 NW8       29.93S
HINCKLEY       FAIR      61  46  59 W9G17     29.96S
CLOQUET        CLOUDY    57  45  62 NW13      29.93R
MCGREGOR       MOSUNNY   59  45  58 W9        29.95S
$$
MNZ071>073-080-081-089-090-097-098-241600-
   Southwest Minnesota

CITY           SKY/WX    TMP DP  RH WIND       PRES   REMARKS
MONTEVIDEO     DRIZZLE   55  43  62 N8        30.08R
GRANITE FALLS  CLOUDY    62  44  52 NW15G21   30.09S
CANBY          CLOUDY    60  45  57 W8        30.08R
MARSHALL       CLOUDY    60  43  53 W15       30.07F
REDWOOD FALLS  MOSUNNY   62  40  44 NW13      30.06F
OLIVIA         PTSUNNY   59  41  51 NW13G18   30.06S
PIPESTONE      MOSUNNY   64  43  45 W14G24    30.09F
WINDOM         SUNNY     64  41  42 W16       30.09S
WORTHINGTON    MOSUNNY   63  44  50 W20       30.11F
JACKSON        MOSUNNY   61  41  48 W10       30.10F
TRACY          CLOUDY    61  44  52 W6        30.08F
SLAYTON        MOSUNNY   60  19  20 W13       30.10F
$$
MNZ065>067-074>077-082>085-091>093-241600-
   South Central Minnesota

CITY           SKY/WX    TMP DP  RH WIND       PRES   REMARKS
MANKATO        SUNNY     60  41  49 NW14G22   30.07R
NEW ULM        MOSUNNY   61  39  44 NW13G23   30.07S
ST JAMES       SUNNY     63  39  42 W13G21    30.09S
FAIRMONT       SUNNY     63  42  46 NW14      30.09F
GLENCOE        MOSUNNY   62  47  59 W14       30.04F
FARIBAULT      SUNNY     61  45  55 W13G22    30.05S
OWATONNA       SUNNY     61  45  55 NW15      30.06R
WASECA         SUNNY     59  43  55 W21       30.08R
ALBERT LEA     SUNNY     61  43  51 NW9G17    30.07S
$$
MNZ078>079-086>088-094>096-241600-
   Southeast Minnesota

CITY           SKY/WX    TMP DP  RH WIND       PRES   REMARKS
ROCHESTER      SUNNY     60  45  57 W20       30.05R
RED WING       MOSUNNY   63  37  39 NW14      30.00S
STANTON        SUNNY     61  43  52 NW18      30.02S
DODGE CENTER   SUNNY     59  43  55 W20       30.05R
WINONA         MOSUNNY   61  46  59 NW9G17    30.01S
AUSTIN         SUNNY     61  41  48 NW17G23   30.06R
PRESTON        MOSUNNY   58  43  57 NW18      30.04S
$$
ABBREVIATIONS USED IN REMARKS
   TC - TEMPERATURES IN CELSIUS
  WCI - WIND CHILL INDEX
   HX - HEAT INDEX
  VSB - VISIBILITY
$$




USA.gov is the U.S. government's official web portal to all federal, state and local government web resources and services.